TELSTAR 18V

Last updated on Sun Jun 21 2026 00:03:07 GMT+0000 (Coordinated Universal Time)

1 43611U 18069A 26171.27677625 -.00000299 00000+0 00000+0 0 9997 2 43611 0.0158 299.0001 0001817 141.1630 65.9528 1.00271609 28679
UTC large
Height (km)
Speed (km/s)
/
Latitude / Longitude
Inclination (degrees)
Orbital Period (minutes)
Azimuth
Elevation
Range (km)
Doppler Factor

Next 0 passes for location: London (51.5072 / 0.1276)

No passes found over London.
TELSTAR 18V